Flag Weather past 2 weeks in Ellwangen (Jagst), Baden-Württemberg, Germany

Now
48 °F

Fog.


Feels Like: 48 °F
Forecast: 42 / 59 °F
Wind: 2 mph from North

Location: Stoetten

Current Time: Oct 30, 2014 at 1:35:07 PM

Latest Report: Oct 30, 2014 at 1:00 PM


Visibility: 2 mi

Pressure: 30.29 "Hg

Humidity: 99%

Dew point: 48 °F

Location of Ellwangen (Jagst)Location

Historic Weather in Ellwangen (Jagst) — Graph

°F

Ellwangen (Jagst) temperature yesterday

Maximum temperature yesterday: 51 °F (at 3:00 PM)
Minimum temperature yesterday: 40 °F (at 12:00 AM)
Average temperature yesterday: 45 °F

Past Weeks' High & Low Weather Summary

 TemperatureHumidityPressure
High69 °F (Oct 19, 2:00 PM)100% (Oct 16, 3:00 AM)30.38 "Hg (Oct 16, 3:00 AM)
Low35 °F (Oct 28, 8:00 AM)57% (Oct 19, 12:00 PM)29.62 "Hg (Oct 21, 8:00 PM)
Average48 °F91%30.11 "Hg
* Reported Oct 15 1:00 PM — Oct 30 12:00 Noon, Ellwangen (Jagst), Weather by CustomWeather, © 2014

Note: Actual official high and low records may vary slightly from our data, if they occured in-between our weather recording intervals... More about our weather records

Advertising

Ellwangen (Jagst) weather history for previous 24 hours

 ConditionsComfort  
Time TempWeatherWind HumidityBarometerVisibility
12:00 PM
Oct 30
48 °FFog.1 mph99%30.29 "Hg2 mi
11:00 AM47 °FFog.2 mph100%30.29 "Hg0 mi
10:00 AM47 °FFog.5 mph100%30.28 "Hg0 mi
9:00 AM47 °FFog.3 mph100%30.27 "Hg0 mi
8:00 AM46 °FFog.3 mph100%30.26 "Hg0 mi
7:00 AM45 °FDrizzle. Dense fog.3 mph100%30.24 "Hg0 mi
6:00 AM45 °FDrizzle. Dense fog.5 mph100%30.22 "Hg0 mi
5:00 AM45 °FDrizzle. Low clouds.6 mph100%30.21 "Hg0 mi
4:00 AM45 °FDrizzle. Low clouds.5 mph100%30.20 "Hg0 mi
3:00 AM45 °FLow clouds.3 mph100%30.20 "Hg0 mi
2:00 AM46 °FLight rain. Low clouds.3 mph100%30.19 "Hg0 mi
1:00 AM45 °FLow clouds.2 mph100%30.19 "Hg0 mi
12:00 AM45 °FLow clouds.5 mph100%30.19 "Hg0 mi
11:00 PM
Oct 29
45 °FLow clouds.3 mph99%30.18 "Hg1 mi
10:00 PM45 °FLow clouds.3 mph100%30.17 "Hg0 mi
9:00 PM44 °FFog.2 mph100%30.16 "Hg0 mi
8:00 PM43 °FFog.2 mph100%30.16 "Hg0 mi
7:00 PM44 °FPassing clouds.2 mph96%30.14 "Hg9 mi
6:00 PM46 °FPassing clouds.2 mph90%30.12 "Hg12 mi
5:00 PM47 °FPassing clouds.3 mph84%30.10 "Hg16 mi
4:00 PM50 °FPassing clouds.3 mph77%30.08 "Hg19 mi
3:00 PM51 °FScattered clouds.5 mph76%30.07 "Hg16 mi
2:00 PM50 °FScattered clouds.5 mph80%30.07 "Hg16 mi
1:00 PM49 °FScattered clouds.5 mph82%30.08 "Hg14 mi
Weather by CustomWeather, © 2014

See weather overviewHow to use our weather pages